Location: Grand Moustoir
(47.8355°N, 3.3120°W)
Time: 12:46:02
(UTC+00:00)

Cosmos 1726 - Pass Details

Date: 20 January 2020
Orbit: 482 x 500 km, 82.5° (Epoch: 16 February)

Event Time Altitude Azimuth Distance (km) Brightness Sun altitude
Rises 06:32:56 0° 204° (SSW) 2,559 5.6 -13.4°
Reaches altitude 10° 06:35:06 10° 212° (SSW) 1,680 4.6 -13.1°
Maximum altitude 06:38:37 42° 284° (WNW) 717 2.4 -12.5°
Drops below altitude 10° 06:42:07 10° 356° (N) 1,684 4.6 -11.9°
Sets 06:44:19 0° 4° (N) 2,568 5.6 -11.6°
